BAW1DL EDDM-EGLL

Flight info

Callsign BAW1DL
Flight time 1h 30m
Altitude 34000
Route GIVMI1N/26R GIVMI Y101 INBED DCT REKDI DCT LOHRE DCT ADKUV DCT DENUT L608 LOGAN
Aircraft A320/M-SDE3FGHIRWY/LB1

Departure

Time 2026-05-05 18:25
Airport Munich Airport (EDDM)

Arrival

Time 2026-05-05 19:55
Airport London Heathrow Airport (EGLL)
Time Latitude Longitude Altitude Speed Heading
2026-05-05 17:43 48.35699 11.79712 1467 ft 0 kts 78°
2026-05-05 18:06 48.35695 11.79686 1456 ft 4 kts 77°
2026-05-05 18:07 48.35689 11.79647 1467 ft 4 kts 76°
2026-05-05 18:07 48.35683 11.79608 1464 ft 3 kts 77°
2026-05-05 18:07 48.35676 11.79575 1461 ft 4 kts 50°
2026-05-05 18:07 48.35656 11.79558 1462 ft 4 kts 359°
2026-05-05 18:08 48.35642 11.79560 1458 ft 1 kts 353°
2026-05-05 18:08 48.35641 11.79560 1467 ft 0 kts 353°
2026-05-05 18:12 48.35642 11.79560 1467 ft 0 kts 353°
2026-05-05 18:12 48.35656 11.79557 1463 ft 5 kts 354°
2026-05-05 18:12 48.35704 11.79549 1459 ft 8 kts 354°
2026-05-05 18:13 48.35765 11.79539 1463 ft 10 kts 354°
2026-05-05 18:13 48.35831 11.79527 1466 ft 10 kts 352°
2026-05-05 18:13 48.35905 11.79514 1459 ft 9 kts 354°
2026-05-05 18:13 48.35917 11.79512 1464 ft 0 kts 353°
2026-05-05 18:15 48.35918 11.79512 1464 ft 0 kts 353°
2026-05-05 18:15 48.35925 11.79510 1461 ft 2 kts 353°
2026-05-05 18:15 48.35945 11.79507 1467 ft 3 kts 353°
2026-05-05 18:16 48.35952 11.79506 1467 ft 0 kts 353°
2026-05-05 18:16 48.35964 11.79503 1460 ft 4 kts 353°
2026-05-05 18:17 48.36011 11.79495 1458 ft 8 kts 353°
2026-05-05 18:17 48.36076 11.79484 1465 ft 10 kts 354°
2026-05-05 18:17 48.36150 11.79472 1468 ft 12 kts 354°
2026-05-05 18:17 48.36216 11.79533 1465 ft 13 kts 74°
2026-05-05 18:18 48.36229 11.79677 1468 ft 15 kts 83°
2026-05-05 18:18 48.36242 11.79835 1464 ft 16 kts 83°
2026-05-05 18:18 48.36255 11.80010 1468 ft 18 kts 84°
2026-05-05 18:18 48.36270 11.80202 1468 ft 19 kts 83°
2026-05-05 18:19 48.36286 11.80413 1467 ft 21 kts 83°
2026-05-05 18:19 48.36304 11.80640 1467 ft 23 kts 83°
2026-05-05 18:19 48.36322 11.80883 1467 ft 24 kts 84°
2026-05-05 18:19 48.36342 11.81142 1467 ft 25 kts 83°
2026-05-05 18:20 48.36359 11.81373 1463 ft 22 kts 83°
2026-05-05 18:20 48.36377 11.81609 1464 ft 23 kts 84°
2026-05-05 18:20 48.36390 11.81796 1466 ft 14 kts 84°
2026-05-05 18:20 48.36397 11.81928 1466 ft 9 kts 90°
2026-05-05 18:21 48.36420 11.82008 1462 ft 9 kts 25°
2026-05-05 18:21 48.36475 11.82005 1465 ft 7 kts 352°
2026-05-05 18:21 48.36527 11.81995 1466 ft 5 kts 354°
2026-05-05 18:21 48.36529 11.81995 1460 ft 0 kts 354°
2026-05-05 18:23 48.36534 11.81994 1466 ft 3 kts 354°
2026-05-05 18:24 48.36606 11.81983 1462 ft 13 kts 351°
2026-05-05 18:24 48.36668 11.81890 1461 ft 14 kts 282°
2026-05-05 18:24 48.36653 11.81632 1460 ft 51 kts 263°
2026-05-05 18:24 48.36587 11.80787 1465 ft 109 kts 263°
2026-05-05 18:25 48.36482 11.79427 1468 ft 151 kts 263°
2026-05-05 18:25 48.36441 11.78895 1475 ft 163 kts 263°
2026-05-05 18:25 48.36229 11.75972 2366 ft 169 kts 265°
2026-05-05 18:25 48.36101 11.74228 2910 ft 175 kts 266°
2026-05-05 18:26 48.35956 11.72299 3153 ft 196 kts 266°
2026-05-05 18:26 48.35790 11.70135 3455 ft 217 kts 265°
2026-05-05 18:26 48.35873 11.67861 4168 ft 221 kts 287°
2026-05-05 18:26 48.36593 11.65690 4596 ft 245 kts 300°
2026-05-05 18:27 48.37517 11.63446 5208 ft 257 kts 300°
2026-05-05 18:27 48.38473 11.61138 6012 ft 262 kts 300°
2026-05-05 18:27 48.39443 11.58779 6786 ft 267 kts 300°
2026-05-05 18:27 48.40425 11.56382 7557 ft 272 kts 299°
2026-05-05 18:28 48.42427 11.51461 9149 ft 279 kts 298°
2026-05-05 18:28 48.43444 11.48956 9908 ft 282 kts 298°
2026-05-05 18:28 48.44489 11.46472 10612 ft 287 kts 304°
2026-05-05 18:29 48.45913 11.44309 11304 ft 296 kts 320°
2026-05-05 18:29 48.47761 11.42755 11674 ft 318 kts 337°
2026-05-05 18:29 48.50003 11.41955 11863 ft 342 kts 347°
2026-05-05 18:29 48.52375 11.41320 12368 ft 350 kts 347°
2026-05-05 18:30 48.54791 11.40674 12992 ft 355 kts 347°
2026-05-05 18:30 48.57234 11.40015 13625 ft 359 kts 347°
2026-05-05 18:30 48.59703 11.39343 14189 ft 363 kts 347°
2026-05-05 18:30 48.62199 11.38659 14748 ft 366 kts 347°
2026-05-05 18:31 48.64718 11.37967 15314 ft 369 kts 347°
2026-05-05 18:31 48.67259 11.37268 15856 ft 373 kts 347°
2026-05-05 18:31 48.69755 11.36230 16415 ft 373 kts 336°
2026-05-05 18:31 48.72080 11.34507 16978 ft 372 kts 325°
2026-05-05 18:32 48.74243 11.32325 17539 ft 375 kts 323°
2026-05-05 18:32 48.76417 11.30114 18065 ft 379 kts 323°
2026-05-05 18:32 48.78623 11.27872 18520 ft 383 kts 323°
2026-05-05 18:32 48.80846 11.25612 19005 ft 387 kts 323°
2026-05-05 18:33 48.83095 11.23338 19524 ft 390 kts 325°
2026-05-05 18:33 48.85526 11.21438 20015 ft 396 kts 336°
2026-05-05 18:33 48.88145 11.20064 20486 ft 400 kts 340°
2026-05-05 18:33 48.90803 11.18729 20954 ft 403 kts 340°
2026-05-05 18:34 48.93472 11.17385 21416 ft 406 kts 339°
2026-05-05 18:34 48.96162 11.16024 21855 ft 409 kts 339°
2026-05-05 18:34 48.98854 11.14655 22296 ft 412 kts 340°
2026-05-05 18:34 49.00677 11.13725 22596 ft 414 kts 340°
2026-05-05 18:35 49.03422 11.12323 23024 ft 417 kts 340°
2026-05-05 18:35 49.06183 11.10913 23449 ft 421 kts 340°
2026-05-05 18:35 49.08968 11.09487 23806 ft 423 kts 340°
2026-05-05 18:35 49.11772 11.08050 24201 ft 426 kts 340°
2026-05-05 18:36 49.14590 11.06609 24573 ft 428 kts 340°
2026-05-05 18:36 49.17425 11.05164 24929 ft 431 kts 340°
2026-05-05 18:36 49.20280 11.03709 25301 ft 433 kts 340°
2026-05-05 18:36 49.23148 11.02235 25645 ft 436 kts 340°
2026-05-05 18:37 49.26030 11.00748 25997 ft 439 kts 340°
2026-05-05 18:37 49.28936 10.99245 26340 ft 441 kts 340°
2026-05-05 18:37 49.31851 10.97733 26681 ft 444 kts 340°
2026-05-05 18:37 49.34769 10.96136 27008 ft 446 kts 335°
2026-05-05 18:38 49.37523 10.93940 27333 ft 447 kts 326°
2026-05-05 18:38 49.39991 10.91138 27660 ft 447 kts 316°
2026-05-05 18:38 49.42163 10.87736 27985 ft 447 kts 306°
2026-05-05 18:38 49.43819 10.83726 28309 ft 445 kts 292°
2026-05-05 18:39 49.45140 10.79421 28632 ft 447 kts 292°
2026-05-05 18:39 49.46457 10.75064 28998 ft 449 kts 292°
2026-05-05 18:39 49.47764 10.70689 29287 ft 452 kts 292°
2026-05-05 18:39 49.49077 10.66256 29567 ft 456 kts 292°
2026-05-05 18:40 49.50385 10.61810 29878 ft 459 kts 292°
2026-05-05 18:40 49.51703 10.57323 30160 ft 461 kts 292°
2026-05-05 18:40 49.53024 10.52831 30540 ft 460 kts 292°
2026-05-05 18:40 49.54347 10.48352 30952 ft 459 kts 292°
2026-05-05 18:41 49.55666 10.43886 31377 ft 458 kts 291°
2026-05-05 18:41 49.56979 10.39433 31808 ft 456 kts 291°
2026-05-05 18:41 49.58288 10.34978 32250 ft 455 kts 291°
2026-05-05 18:41 49.59590 10.30531 32608 ft 456 kts 291°
2026-05-05 18:42 49.60888 10.26072 32986 ft 456 kts 291°
2026-05-05 18:42 49.62187 10.21605 33380 ft 456 kts 291°
2026-05-05 18:42 49.63481 10.17151 33747 ft 456 kts 291°
2026-05-05 18:42 49.64779 10.12682 33829 ft 455 kts 291°
2026-05-05 18:43 49.67359 10.03775 33834 ft 454 kts 291°
2026-05-05 18:43 49.69909 9.94914 33856 ft 454 kts 291°
2026-05-05 18:44 49.72477 9.85963 33833 ft 456 kts 291°
2026-05-05 18:44 49.75052 9.76999 33831 ft 456 kts 291°
2026-05-05 18:45 49.77620 9.68017 33836 ft 456 kts 291°
2026-05-05 18:45 49.80173 9.59038 33828 ft 456 kts 291°
2026-05-05 18:46 49.82724 9.50017 33844 ft 457 kts 291°
2026-05-05 18:46 49.85269 9.40985 33829 ft 458 kts 291°
2026-05-05 18:47 49.87812 9.31938 33835 ft 458 kts 290°
2026-05-05 18:47 49.90341 9.22879 33842 ft 458 kts 290°
2026-05-05 18:48 49.92871 9.13798 33833 ft 458 kts 290°
2026-05-05 18:48 49.95379 9.04769 33844 ft 458 kts 290°
2026-05-05 18:49 49.97893 8.95680 33836 ft 458 kts 290°
2026-05-05 18:49 50.00404 8.86565 33827 ft 459 kts 290°
2026-05-05 18:50 50.02911 8.77453 33822 ft 459 kts 290°
2026-05-05 18:50 50.05411 8.68319 33816 ft 459 kts 290°
2026-05-05 18:51 50.07901 8.59178 33817 ft 459 kts 290°
2026-05-05 18:51 50.10382 8.50024 33818 ft 459 kts 290°
2026-05-05 18:52 50.12856 8.40860 33860 ft 459 kts 290°
2026-05-05 18:52 50.15325 8.31682 33861 ft 459 kts 290°
2026-05-05 18:53 50.17776 8.22555 33874 ft 459 kts 290°
2026-05-05 18:53 50.20237 8.13345 33861 ft 460 kts 290°
2026-05-05 18:54 50.22687 8.04120 33856 ft 460 kts 290°
2026-05-05 18:54 50.25131 7.94894 33850 ft 460 kts 290°
2026-05-05 18:55 50.27574 7.85664 33840 ft 460 kts 290°
2026-05-05 18:55 50.30011 7.76413 33853 ft 460 kts 289°
2026-05-05 18:56 50.32423 7.67160 33845 ft 459 kts 289°
2026-05-05 18:56 50.34832 7.57895 33837 ft 459 kts 289°
2026-05-05 18:57 50.37244 7.48641 33828 ft 459 kts 289°
2026-05-05 18:57 50.39637 7.39411 33844 ft 459 kts 289°
2026-05-05 18:58 50.42023 7.30116 33831 ft 459 kts 289°
2026-05-05 18:58 50.44406 7.20804 33825 ft 459 kts 289°
2026-05-05 18:59 50.46766 7.11566 33826 ft 459 kts 289°
2026-05-05 18:59 50.49136 7.02263 33831 ft 459 kts 289°
2026-05-05 19:00 50.51501 6.92931 33842 ft 459 kts 289°
2026-05-05 19:00 50.53854 6.83593 33838 ft 460 kts 289°
2026-05-05 19:01 50.56207 6.74252 33836 ft 460 kts 289°
2026-05-05 19:01 50.58551 6.64888 33838 ft 460 kts 289°
2026-05-05 19:02 50.60884 6.55528 33840 ft 460 kts 288°
2026-05-05 19:02 50.63210 6.46154 33854 ft 459 kts 288°
2026-05-05 19:03 50.65521 6.36779 33857 ft 459 kts 288°
2026-05-05 19:03 50.67824 6.27403 33862 ft 458 kts 288°
2026-05-05 19:04 50.70121 6.18034 33858 ft 458 kts 288°
2026-05-05 19:04 50.72409 6.08656 33864 ft 458 kts 288°
2026-05-05 19:05 50.74690 5.99274 33883 ft 457 kts 288°
2026-05-05 19:05 50.76942 5.89956 33881 ft 457 kts 288°
2026-05-05 19:06 50.79200 5.80559 33888 ft 457 kts 287°
2026-05-05 19:06 50.81448 5.71171 33878 ft 457 kts 287°
2026-05-05 19:07 50.83696 5.61779 33889 ft 456 kts 288°
2026-05-05 19:07 50.85933 5.52391 33898 ft 454 kts 287°
2026-05-05 19:08 50.88142 5.43025 33897 ft 453 kts 287°
2026-05-05 19:08 50.90348 5.33684 33890 ft 452 kts 287°
2026-05-05 19:09 50.92539 5.24349 33888 ft 452 kts 287°
2026-05-05 19:09 50.94705 5.15073 33897 ft 451 kts 287°
2026-05-05 19:10 50.96870 5.05730 33904 ft 451 kts 287°
2026-05-05 19:10 50.99031 4.96391 33901 ft 451 kts 287°
2026-05-05 19:11 51.01192 4.87059 33902 ft 450 kts 287°
2026-05-05 19:11 51.03337 4.77720 33901 ft 450 kts 287°
2026-05-05 19:12 51.05467 4.68349 33917 ft 449 kts 287°
2026-05-05 19:12 51.07588 4.59021 33918 ft 448 kts 287°
2026-05-05 19:13 51.09701 4.49712 33915 ft 447 kts 287°
2026-05-05 19:13 51.11805 4.40398 33912 ft 446 kts 287°
2026-05-05 19:14 51.13880 4.31166 33908 ft 446 kts 287°
2026-05-05 19:14 51.15956 4.21859 33903 ft 446 kts 287°
2026-05-05 19:15 51.18026 4.12540 33899 ft 446 kts 287°
2026-05-05 19:15 51.20098 4.03224 33896 ft 446 kts 286°
2026-05-05 19:16 51.22151 3.93891 33884 ft 446 kts 286°
2026-05-05 19:16 51.24191 3.84552 33881 ft 446 kts 286°
2026-05-05 19:17 51.26231 3.75205 33899 ft 446 kts 286°
2026-05-05 19:17 51.28274 3.65863 33898 ft 445 kts 286°
2026-05-05 19:18 51.30299 3.56520 33908 ft 445 kts 286°
2026-05-05 19:18 51.32301 3.47243 33908 ft 444 kts 286°
2026-05-05 19:19 51.34306 3.37908 33914 ft 444 kts 285°
2026-05-05 19:19 51.36369 3.28600 33917 ft 444 kts 287°
2026-05-05 19:20 51.38586 3.19370 33924 ft 444 kts 288°
2026-05-05 19:20 51.40824 3.10159 33926 ft 444 kts 288°
2026-05-05 19:21 51.43016 3.00908 33933 ft 444 kts 287°
2026-05-05 19:21 51.45173 2.91650 33930 ft 444 kts 287°
2026-05-05 19:22 51.47326 2.82368 33941 ft 444 kts 287°
2026-05-05 19:22 51.49487 2.73085 33933 ft 444 kts 287°
2026-05-05 19:23 51.51641 2.63804 33945 ft 444 kts 287°
2026-05-05 19:23 51.53764 2.54558 33885 ft 443 kts 287°
2026-05-05 19:24 51.54821 2.49953 33499 ft 437 kts 287°
2026-05-05 19:24 51.55873 2.45379 33026 ft 433 kts 287°
2026-05-05 19:24 51.56912 2.40860 32582 ft 429 kts 287°
2026-05-05 19:24 51.57938 2.36376 32115 ft 425 kts 287°
2026-05-05 19:25 51.58950 2.31932 31674 ft 422 kts 287°
2026-05-05 19:25 51.59615 2.29009 31392 ft 419 kts 287°
2026-05-05 19:25 51.60609 2.24629 30960 ft 415 kts 287°
2026-05-05 19:25 51.61591 2.20279 30541 ft 411 kts 287°
2026-05-05 19:26 51.62563 2.15971 30129 ft 408 kts 287°
2026-05-05 19:26 51.63528 2.11695 29678 ft 404 kts 287°
2026-05-05 19:26 51.64481 2.07476 29286 ft 399 kts 287°
2026-05-05 19:26 51.65424 2.03298 28900 ft 394 kts 287°
2026-05-05 19:27 51.66353 1.99171 28522 ft 390 kts 287°
2026-05-05 19:27 51.67266 1.95087 28159 ft 386 kts 286°
2026-05-05 19:27 51.68167 1.91042 27796 ft 382 kts 287°
2026-05-05 19:27 51.69058 1.87032 27418 ft 379 kts 288°
2026-05-05 19:28 51.69941 1.83050 27052 ft 375 kts 287°
2026-05-05 19:28 51.70812 1.79110 26689 ft 372 kts 287°
2026-05-05 19:28 51.71677 1.75197 26311 ft 368 kts 288°
2026-05-05 19:28 51.72530 1.71328 25962 ft 365 kts 288°
2026-05-05 19:29 51.73379 1.67480 25571 ft 363 kts 288°
2026-05-05 19:29 51.74139 1.63624 25191 ft 359 kts 281°
2026-05-05 19:29 51.74488 1.59662 24788 ft 356 kts 272°
2026-05-05 19:29 51.74415 1.55657 24220 ft 359 kts 263°
2026-05-05 19:30 51.74152 1.51639 23686 ft 362 kts 264°
2026-05-05 19:30 51.73891 1.47584 23080 ft 364 kts 264°
2026-05-05 19:30 51.73628 1.43516 22525 ft 364 kts 264°
2026-05-05 19:30 51.73369 1.39514 21992 ft 364 kts 264°
2026-05-05 19:31 51.73106 1.35459 21453 ft 364 kts 264°
2026-05-05 19:31 51.72841 1.31393 20895 ft 354 kts 264°
2026-05-05 19:31 51.72590 1.27549 20382 ft 345 kts 264°
2026-05-05 19:31 51.72337 1.23701 19871 ft 345 kts 264°
2026-05-05 19:32 51.72082 1.19852 19347 ft 346 kts 264°
2026-05-05 19:32 51.71822 1.15981 18829 ft 348 kts 264°
2026-05-05 19:32 51.71556 1.12088 18306 ft 350 kts 263°
2026-05-05 19:32 51.71289 1.08179 17728 ft 351 kts 264°
2026-05-05 19:33 51.71022 1.04273 17192 ft 350 kts 264°
2026-05-05 19:33 51.70755 1.00383 16754 ft 347 kts 264°
2026-05-05 19:33 51.70492 0.96559 16157 ft 339 kts 264°
2026-05-05 19:33 51.70236 0.92851 15685 ft 327 kts 264°
2026-05-05 19:34 51.69987 0.89266 15261 ft 317 kts 264°
2026-05-05 19:34 51.69742 0.85740 14839 ft 317 kts 264°
2026-05-05 19:34 51.69501 0.82249 14414 ft 318 kts 264°
2026-05-05 19:35 51.69005 0.75158 13543 ft 319 kts 264°
2026-05-05 19:35 51.68755 0.71625 13282 ft 313 kts 264°
2026-05-05 19:35 51.68506 0.68183 13028 ft 307 kts 264°
2026-05-05 19:35 51.68262 0.64787 12713 ft 304 kts 265°
2026-05-05 19:36 51.68021 0.61422 12401 ft 301 kts 265°
2026-05-05 19:36 51.67782 0.58086 12096 ft 299 kts 264°
2026-05-05 19:36 51.67543 0.54772 11785 ft 296 kts 264°
2026-05-05 19:36 51.67306 0.51491 11481 ft 295 kts 265°
2026-05-05 19:37 51.67068 0.48216 11175 ft 293 kts 265°
2026-05-05 19:37 51.66830 0.44962 10873 ft 291 kts 265°
2026-05-05 19:37 51.66594 0.41733 10581 ft 290 kts 265°
2026-05-05 19:37 51.66358 0.38515 10288 ft 289 kts 265°
2026-05-05 19:38 51.66122 0.35310 9995 ft 288 kts 265°
2026-05-05 19:38 51.65884 0.32119 9690 ft 286 kts 265°
2026-05-05 19:38 51.65649 0.28988 9372 ft 285 kts 265°
2026-05-05 19:38 51.65409 0.25838 9063 ft 283 kts 265°
2026-05-05 19:39 51.65171 0.22715 8953 ft 277 kts 265°
2026-05-05 19:39 51.64943 0.19719 8976 ft 263 kts 265°
2026-05-05 19:39 51.64730 0.16864 8966 ft 252 kts 266°
2026-05-05 19:39 51.64540 0.13899 8978 ft 276 kts 266°
2026-05-05 19:40 51.64351 0.10806 8974 ft 273 kts 266°
2026-05-05 19:40 51.64164 0.07815 8775 ft 267 kts 266°
2026-05-05 19:40 51.63978 0.04849 8476 ft 266 kts 266°
2026-05-05 19:40 51.63789 0.01890 8163 ft 266 kts 266°
2026-05-05 19:41 51.63600 -0.01045 8016 ft 260 kts 266°
2026-05-05 19:41 51.63421 -0.03834 7999 ft 248 kts 266°
2026-05-05 19:41 51.63244 -0.06574 8008 ft 245 kts 266°
2026-05-05 19:41 51.63069 -0.09303 8021 ft 245 kts 266°
2026-05-05 19:42 51.62893 -0.12030 8024 ft 245 kts 266°
2026-05-05 19:42 51.62718 -0.14756 8028 ft 245 kts 266°
2026-05-05 19:42 51.62540 -0.17481 8016 ft 245 kts 266°
2026-05-05 19:42 51.62364 -0.20208 8032 ft 245 kts 266°
2026-05-05 19:43 51.62186 -0.22930 8031 ft 245 kts 266°
2026-05-05 19:43 51.62006 -0.25651 8025 ft 245 kts 266°
2026-05-05 19:43 51.61829 -0.28372 8027 ft 245 kts 266°
2026-05-05 19:43 51.61654 -0.31096 8032 ft 245 kts 266°
2026-05-05 19:44 51.61478 -0.33820 7950 ft 245 kts 266°
2026-05-05 19:44 51.61307 -0.36512 7951 ft 245 kts 266°
2026-05-05 19:44 51.61134 -0.39240 7950 ft 245 kts 266°
2026-05-05 19:44 51.60957 -0.41967 7935 ft 245 kts 266°
2026-05-05 19:45 51.60780 -0.44693 7951 ft 245 kts 266°
2026-05-05 19:45 51.60602 -0.47416 7948 ft 245 kts 266°
2026-05-05 19:45 51.60421 -0.50139 7944 ft 245 kts 266°
2026-05-05 19:45 51.60240 -0.52862 7951 ft 245 kts 266°
2026-05-05 19:46 51.60060 -0.55589 7951 ft 245 kts 266°
2026-05-05 19:46 51.59878 -0.58309 7946 ft 245 kts 266°
2026-05-05 19:46 51.59699 -0.61027 7849 ft 244 kts 266°
2026-05-05 19:46 51.59522 -0.63741 7507 ft 245 kts 266°
2026-05-05 19:47 51.59342 -0.66491 7109 ft 249 kts 266°
2026-05-05 19:47 51.59159 -0.69246 6706 ft 247 kts 266°
2026-05-05 19:47 51.58980 -0.71966 6312 ft 242 kts 266°
2026-05-05 19:47 51.58797 -0.74636 5890 ft 239 kts 266°
2026-05-05 19:48 51.58619 -0.77287 5477 ft 237 kts 266°
2026-05-05 19:48 51.58260 -0.79830 5065 ft 234 kts 243°
2026-05-05 19:48 51.57176 -0.81722 4663 ft 231 kts 209°
2026-05-05 19:48 51.55654 -0.82438 4245 ft 228 kts 185°
2026-05-05 19:49 51.54080 -0.82614 3830 ft 226 kts 181°
2026-05-05 19:49 51.53042 -0.82685 3556 ft 225 kts 181°
2026-05-05 19:49 51.50990 -0.82822 3164 ft 216 kts 181°
2026-05-05 19:49 51.49523 -0.82929 3029 ft 206 kts 180°
2026-05-05 19:50 51.48172 -0.82513 3023 ft 195 kts 148°
2026-05-05 19:50 51.47213 -0.81067 3005 ft 188 kts 114°
2026-05-05 19:50 51.47130 -0.79112 3014 ft 180 kts 68°
2026-05-05 19:50 51.47606 -0.77263 3006 ft 181 kts 76°
2026-05-05 19:51 51.47594 -0.75312 3002 ft 170 kts 89°
2026-05-05 19:51 51.47605 -0.73449 3006 ft 165 kts 86°
2026-05-05 19:51 51.47625 -0.71618 2900 ft 163 kts 86°
2026-05-05 19:51 51.47639 -0.69803 2721 ft 162 kts 86°
2026-05-05 19:52 51.47651 -0.68002 2517 ft 161 kts 87°
2026-05-05 19:52 51.47662 -0.66209 2297 ft 160 kts 87°
2026-05-05 19:52 51.47672 -0.64426 2084 ft 160 kts 87°
2026-05-05 19:52 51.47682 -0.62646 1873 ft 160 kts 88°
2026-05-05 19:53 51.47691 -0.60870 1648 ft 159 kts 88°
2026-05-05 19:53 51.47700 -0.59138 1427 ft 149 kts 88°
2026-05-05 19:53 51.47707 -0.57539 1235 ft 140 kts 88°
2026-05-05 19:53 51.47715 -0.55993 1042 ft 137 kts 88°
2026-05-05 19:54 51.47722 -0.54471 847 ft 136 kts 88°
2026-05-05 19:54 51.47729 -0.52947 670 ft 137 kts 87°
2026-05-05 19:54 51.47734 -0.51417 449 ft 137 kts 87°
2026-05-05 19:54 51.47735 -0.49916 239 ft 136 kts 86°
2026-05-05 19:55 51.47749 -0.48405 119 ft 136 kts 86°
2026-05-05 19:55 51.47760 -0.47025 88 ft 105 kts 90°
2026-05-05 19:55 51.47760 -0.46132 88 ft 55 kts 90°
2026-05-05 19:55 51.47759 -0.45759 86 ft 23 kts 91°
2026-05-05 19:56 51.47745 -0.45525 89 ft 16 kts 117°
2026-05-05 19:56 51.47682 -0.45468 88 ft 10 kts 175°
2026-05-05 19:56 51.47654 -0.45467 86 ft 0 kts 180°
2026-05-05 19:57 51.47653 -0.45467 86 ft 1 kts 180°
2026-05-05 19:57 51.47610 -0.45489 90 ft 8 kts 221°
2026-05-05 19:57 51.47596 -0.45587 87 ft 12 kts 270°
2026-05-05 19:58 51.47595 -0.45766 90 ft 20 kts 270°
2026-05-05 19:58 51.47595 -0.45999 90 ft 22 kts 270°
2026-05-05 19:58 51.47594 -0.46257 86 ft 24 kts 269°
2026-05-05 19:58 51.47592 -0.46537 86 ft 26 kts 270°
2026-05-05 19:59 51.47592 -0.46784 86 ft 22 kts 269°
2026-05-05 19:59 51.47582 -0.47037 90 ft 24 kts 269°
2026-05-05 19:59 51.47582 -0.47308 91 ft 22 kts 269°
2026-05-05 19:59 51.47580 -0.47561 90 ft 23 kts 270°
2026-05-05 20:00 51.47580 -0.47824 89 ft 25 kts 270°
2026-05-05 20:00 51.47580 -0.48095 88 ft 22 kts 269°
2026-05-05 20:00 51.47579 -0.48300 90 ft 17 kts 269°
2026-05-05 20:00 51.47576 -0.48423 89 ft 10 kts 259°
2026-05-05 20:01 51.47516 -0.48476 86 ft 12 kts 180°
2026-05-05 20:01 51.47425 -0.48474 86 ft 14 kts 179°
2026-05-05 20:01 51.47318 -0.48474 86 ft 16 kts 180°
2026-05-05 20:01 51.47195 -0.48473 86 ft 19 kts 179°
2026-05-05 20:02 51.47059 -0.48471 89 ft 18 kts 179°
2026-05-05 20:02 51.46956 -0.48470 88 ft 13 kts 180°
2026-05-05 20:02 51.46890 -0.48484 87 ft 9 kts 214°
2026-05-05 20:02 51.46877 -0.48586 86 ft 11 kts 269°
2026-05-05 20:03 51.46877 -0.48715 86 ft 11 kts 269°
2026-05-05 20:03 51.46876 -0.48833 86 ft 7 kts 271°
2026-05-05 20:03 51.46880 -0.48848 86 ft 2 kts 296°
2026-05-05 20:03 51.46897 -0.48862 89 ft 4 kts 346°
2026-05-05 20:04 51.46925 -0.48859 86 ft 3 kts
2026-05-05 20:04 51.46930 -0.48859 86 ft 0 kts